Regional Weather Roundup
Issued by NWS Newport/Morehead, NC

Current Version | Previous Version | Graphics & Text | Print | Product List | Glossary Off
Versions: 1 2 3 4 5 6 7 8 9 10 11 12 13 14 15 16 17 18 19 20 21 22 23 24 25 26 27 28 29 30 31 32 33 34 35 36 37 38 39 40 41 42 43 44 45 46 47 48 49 50

000
ASUS42 KMHX 301722
RWRMHX
WEATHER ROUNDUP FOR EASTERN NORTH CAROLINA
NATIONAL WEATHER SERVICE NEWPORT/MOREHEAD CITY NC
100 PM EDT SAT AUG 30 2014

NOTE: "FAIR" INDICATES FEW OR NO CLOUDS BELOW 12,000 FEET
WITH NO SIGNIFICANT WEATHER AND/OR OBSTRUCTIONS TO VISIBILITY

NCZ015>017-031-032-045>047-102-103-301800-
NORTH COAST

CITY           SKY/WX    TMP DP  RH WIND       PRES   REMARKS
EDENTON        MOSUNNY   84  73  70 SE7       30.20F
ELIZABETH CITY SUNNY     84  74  71 SE10      30.22F
KITTY HAWK     SUNNY     83  73  72 E8        30.21F
MANTEO         CLOUDY    82  74  76 E7        30.21F

$$

NCZ045>047-081-094-103-104-301800-
CENTRAL COAST

CITY           SKY/WX    TMP DP  RH WIND       PRES   REMARKS
FRISCO         NOT AVBL
SWANQUARTER      N/A     86 N/A N/A S7        30.18S

$$

NCZ095-097-098-100-101-301800-
SOUTHERN COAST

CITY           SKY/WX    TMP DP  RH WIND       PRES   REMARKS
BEAUFORT       PTSUNNY   83  75  77 SE8       30.21F
CEDAR ISLAND     N/A     86 N/A N/A SE7       30.24F
JACKSONVILLE   MOSUNNY   86  73  65 SE6       30.20F
NEWPORT        NOT AVBL
PINEY ISLAND   MOSUNNY   87  76  69 SE8       30.21F
WILMINGTON     MOSUNNY   86  73  65 SE9       30.20S


$$

NCZ011>013-027>030-043-044-078>080-089-090>093-098-301800-
COASTAL PLAIN

CITY           SKY/WX    TMP DP  RH WIND       PRES   REMARKS
AHOSKIE        SUNNY     83  71  64 S3        30.20F
CLINTON        MOSUNNY   89  74  60 E5        30.19F
ELIZABETHTOWN  MOSUNNY   88  70  54 E3        30.18F
GOLDSBORO      SUNNY     87  73  61 VRB5      30.18F
GREENVILLE     SUNNY     88  72  58 E5        30.21F
HAVELOCK       MOSUNNY   87  71  58 CALM      30.21F
KENANSVILLE    PTSUNNY   85  69  59 CALM      30.20F
KINSTON        SUNNY     86  70  58 E6        30.21F
NEW BERN       PTSUNNY   89  68  49 S3        30.21F
RICHLANDS      CLOUDY    88  72  58 SE7       30.19F
ROANOKE RAPIDS NOT AVBL
ROCKY MOUNT    SUNNY     87  72  60 CALM      30.21F
WASHINGTON     SUNNY     85  69  60 CALM      30.20F
WHITEVILLE     PTSUNNY   84  73  69 SE7       30.19S

$$

AMZ130-135-150-152-154-156-158-170-250-252-270-ANZ085-086-088-633-658-670-301800-
MARINE OBSERVATIONS

STATION/POSITION TIME  TEMP    WIND        PRES    WAVE   SWELL
                       AIR SEA DIR/SP/G            HT/PER HT/PER
                 (UTC) (F)     (DEG/KT/KT) (MB)    (FT/S) (FT/S)
CHESAPEAKE LIGHT 1700   76     120/ 13/ 14 1024.0
BUOY 44014       1700   77 78  100/ 10/ 10 1023.4    3/ 7   2/ 7
DUCK             1700   79 78   90/ 12/ 14 1022.7
2E DUCK          1700                        N/A     3/ 8
OREGON INLET     1700   81 78  100/  7/ 12 1023.1
BUOY 44095       1700      77                N/A     3/ 8
20E OREGON INLET NOT AVBL
HATTERAS CG      1700   84 81  140/  5/  8 1023.5
DIAMOND BUOY     1700   80     160/  8/ 10 1023.2    3/ 8   3/ 8
CAPE LOOKOUT     1700   78     180/  7/  7 1022.9
BEAUFORT LAB     1700   81 81  170/  9/ 12 1022.4
30 SE NEW RIVER  1700   80 83   80/  8/ 10 1023.2    2/ 7   2/ 7
5 SE WRIGHTSVILL 1700   79 82  130/  8/ 10   N/A
BUOY 41002       1631   81 84  130/  2/  4 1023.4    4/ 8   3/ 8
BUOY 41004       1700   81 83   40/  8/ 12 1021.7    3/ 9   3/ 9

$$



USA.gov is the U.S. government's official web portal to all federal, state and local government web resources and services.